OneWeb SL0040

operational
NORAD ID: 45147 Int'l Des: 2020-008 Owner: ONEWEB Country: UK Constellation: oneweb
LEOCIRCULARPOLARONEWEB_TYPE

Über OneWeb SL0040

Beschreibung wird geladen...

Live-Position

3D-Globus wird geladen...

Nächste Überflüge

Höhenverlauf

Altitude vs Time

uPlot chart will show altitude changes over time

Zweizeiliger Elementsatz

1 45147U 20008S 25256.25359033 -.00000359 00000-0 -10654-2 0 9998
2 45147 87.8811 91.5073 0000867 58.9727 301.1486 13.10383246271598
Epoch: 13. Sept. 2025 • Age: 51 hours

Aktueller Status

Höhe 1249.7 km
Geschwindigkeit 7.23 km/s
Subsatellitenpunkt -76.08°S, 47.19°W
Startdatum 6. Feb. 2020
Alter 5.6 years
Typ internet

Technische Details

Klassifizierung Payload
Masse 148.00 kg
Trockenmasse 140.00 kg
Gesamtmasse 148.00 kg
Länge 1.30 m
Durchmesser 1.00 m
Spannweite 5.00 m
Form Trapezoid+2 pan
Hersteller ONEWUS
Bus-Typ ARROW
Phasenstatus In Orbit
Besitzer/Staat ONEWEB/UK

Große Konstellationen

Loading constellations...